Location: Fours
(44.3167°N, 6.7000°E)
Time: 10:18:27
(UTC+00:00)

ISS - Pass Details

Date: 29 September 2021
Orbit: 417 x 423 km, 51.6° (Epoch: 27 October)

Event Time Altitude Azimuth Distance (km) Brightness Sun altitude
Rises 18:13:36 0° 299° (WNW) 2,366 1.5 -10.9°
Reaches altitude 10° 18:15:55 10° 312° (NW) 1,501 0.0 -11.3°
Maximum altitude 18:18:50 27° 12° (NNE) 854 -2.2 -11.8°
Enters shadow 18:20:52 15° 62° (ENE) 1,212 -1.9 -12.2°
